Weather History for KP60 - September, 2013

Change the Weather History Date:

Monday, September 16, 2013

  Actual Average Record
Temperature  
Mean Temperature 54 °F 47 °F  
Max Temperature 69 °F 62 °F 77 °F (2000)
Min Temperature 39 °F 31 °F 27 °F (2005)
Degree Days  
Heating Degree Days 11 18  
Month to date heating degree days 178 251  
Since 1 July heating degree days 602 838  
Cooling Degree Days 0 0  
Month to date cooling degree days 0 0  
Year to date cooling degree days 0 0  
Growing Degree Days 2 (Base 50)    
Moisture  
Dew Point 45 °F    
Average Humidity 71    
Maximum Humidity 100    
Minimum Humidity 42    
Precipitation  
Precipitation 0.00 in 0.05 in 0.13 in (2011)
Month to date precipitation 1.32 0.79  
Year to date precipitation 13.49 14.86  
Sea Level Pressure  
Sea Level Pressure 30.04 in    
Wind  
Wind Speed 1 mph (North)    
Max Wind Speed 9 mph    
Max Gust Speed 18 mph    
T = Trace of Precipitation, MM = Missing Value Source: NWS Daily Summary

Daily Weather History Graph

Daily Weather History Graph

Search for Another Location

Airport or City:

Trip Planner

Search our weather history database for the weather conditions in past years. The results will help you decide how hot, cold, wet, or windy it might be!

Date:

Astronomy

Sep. 16, 2013 Rise Set
Actual Time 7:02 AM MDT 7:29 PM MDT
Civil Twilight 6:32 AM MDT 7:59 PM MDT
Nautical Twilight 5:58 AM MDT 8:33 PM MDT
Astronomical Twilight 5:22 AM MDT 9:08 PM MDT
Moon 5:45 PM MDT (9/16) 3:46 AM MDT (9/16)
Length of Visible Light 13h 26m
Length of Day
12h 27m
Waxing Gibbous, 90% of the Moon is Illuminated
Sep 16
Waxing Gibbous
Sep 19
Full
Sep 26
Last Quarter
Oct 4
New
Oct 11
First Quarter

Hourly Weather History & Observations

Time (MDT) Temp. Dew Point Humidity Pressure Visibility Wind Dir Wind Speed Gust Speed Precip Events Conditions
12:56 AM 43.0 °F 42.1 °F 97% 30.10 in - Calm Calm - N/A   Unknown
1:56 AM 43.0 °F 43.0 °F 100% 30.10 in - Calm Calm - N/A   Unknown
2:56 AM 44.1 °F 43.0 °F 96% 30.07 in - Calm Calm - N/A   Unknown
3:56 AM 42.1 °F 41.0 °F 96% 30.09 in - Calm Calm - N/A   Unknown
4:56 AM 42.1 °F 42.1 °F 100% 30.10 in - Calm Calm - N/A   Unknown
5:56 AM 41.0 °F 39.9 °F 96% 30.11 in - Calm Calm - N/A   Unknown
6:56 AM 39.9 °F 39.0 °F 97% 30.12 in - Calm Calm - N/A   Unknown
7:56 AM 42.1 °F 42.1 °F 100% 30.12 in - Calm Calm - N/A   Unknown
8:56 AM 48.9 °F 46.9 °F 93% 30.11 in - Calm Calm - N/A   Unknown
9:56 AM 54.0 °F 46.9 °F 77% 30.10 in - Calm Calm - N/A   Unknown
10:56 AM 57.0 °F 46.9 °F 69% 30.09 in - Variable 3.5 mph - N/A   Unknown
11:56 AM 60.1 °F 48.0 °F 64% 30.07 in - Variable 3.5 mph - N/A   Unknown
12:56 PM 62.1 °F 48.9 °F 62% 30.05 in - Variable 5.8 mph - N/A   Unknown
1:56 PM 64.9 °F 48.9 °F 56% 30.02 in - Calm Calm - N/A   Unknown
2:56 PM 64.9 °F 46.9 °F 52% 29.99 in - Variable 3.5 mph - N/A   Unknown
3:56 PM 66.0 °F 46.0 °F 48% 29.98 in - Variable 4.6 mph - N/A   Unknown
4:56 PM 66.0 °F 43.0 °F 43% 29.97 in - Variable 5.8 mph - N/A   Unknown
5:56 PM 66.0 °F 44.1 °F 45% 29.95 in - Calm Calm - N/A   Unknown
6:56 PM 61.0 °F 45.0 °F 56% 29.98 in - Calm Calm - N/A   Unknown
7:56 PM 55.0 °F 48.0 °F 77% 30.00 in - Calm Calm - N/A   Unknown
8:56 PM 52.0 °F 46.0 °F 80% 30.00 in - Calm Calm - N/A   Unknown
9:56 PM 48.0 °F 44.1 °F 86% 29.99 in - Calm Calm - N/A   Unknown
10:56 PM 48.0 °F 44.1 °F 86% 29.98 in - Calm Calm - N/A   Unknown
11:56 PM 46.0 °F 43.0 °F 89% 29.98 in - Calm Calm - N/A   Unknown